Location: Freiburg+im+Breisgau
(48.0359°N, 7.8195°E)
Time: 09:54:53
(UTC+02:00)

ISS - Pass Details

Date: 12 February 2018
Orbit: 402 x 406 km, 51.6° (Epoch: 18 June)

Event Time Altitude Azimuth Distance (km) Brightness Sun altitude
Rises 18:25:28 0° 290° (WNW) 2,321 1.1 -7.2°
Reaches altitude 10° 18:27:39 10° 281° (W) 1,459 0.3 -7.5°
Maximum altitude 18:30:38 33° 215° (SW) 695 -2.1 -8.0°
Drops below altitude 10° 18:33:37 10° 149° (SSE) 1,453 -1.2 -8.5°
Enters shadow 18:36:24 -2° 138° (SE) 2,559 -0.1 -8.9°
